This is the latest recevied weather packets stored in our database for station/object DL5TW-13. If no packets are shown the sender has not sent any weather packets the latest 10 day(s).
| Time | Temp. | Humidity | Pressure | Rain* | Wind** | Luminosity | Snow |
|---|---|---|---|---|---|---|---|
| 1777495331 | 5° C | 46% | 1023.9 hPa | 0 mm | - | - | - |
| 1777495030 | 5° C | 46% | 1024.1 hPa | 0 mm | - | - | - |
| 1777494730 | 5° C | 46% | 1024 hPa | 0 mm | - | - | - |
| 1777494430 | 5° C | 46% | 1024 hPa | 0 mm | - | - | - |
| 1777494129 | 4.44° C | 47% | 1023.9 hPa | 0 mm | - | - | - |
| 1777493829 | 4.44° C | 47% | 1023.9 hPa | 0 mm | - | - | - |
| 1777493529 | 4.44° C | 47% | 1024 hPa | 0 mm | - | - | - |
| 1777493228 | 4.44° C | 46% | 1023.9 hPa | 0 mm | - | - | - |
| 1777492928 | 5° C | 46% | 1023.9 hPa | 0 mm | - | - | - |
| 1777492628 | 5° C | 45% | 1023.8 hPa | 0 mm | - | - | - |
| 1777492328 | 5° C | 45% | 1023.8 hPa | 0 mm | - | - | - |
| 1777492027 | 5° C | 46% | 1023.7 hPa | 0 mm | - | - | - |
| 1777491727 | 5° C | 45% | 1023.7 hPa | 0 mm | - | - | - |
| 1777491427 | 5° C | 45% | 1023.6 hPa | 0 mm | - | - | - |
| 1777491126 | 5° C | 44% | 1023.7 hPa | 0 mm | - | - | - |
| 1777490826 | 5° C | 44% | 1023.8 hPa | 0 mm | - | - | - |
| 1777490526 | 5.56° C | 44% | 1023.7 hPa | 0 mm | - | - | - |
| 1777490226 | 5.56° C | 43% | 1023.7 hPa | 0 mm | - | - | - |
| 1777489925 | 5.56° C | 42% | 1023.7 hPa | 0 mm | - | - | - |
| 1777489625 | 6.11° C | 41% | 1023.6 hPa | 0 mm | - | - | - |
| 1777489325 | 6.11° C | 41% | 1023.5 hPa | 0 mm | - | - | - |
| 1777489024 | 6.67° C | 40% | 1023.3 hPa | 0 mm | - | - | - |
| 1777488724 | 7.22° C | 39% | 1023.2 hPa | 0 mm | - | - | - |
| 1777488424 | 7.22° C | 39% | 1023.1 hPa | 0 mm | - | - | - |
| 1777488124 | 7.78° C | 39% | 1023 hPa | 0 mm | - | - | - |
* Rain latest hour (hover to see other rain measurements)
** Current wind speed in m/s (hover to see current wind gust speed)